Weather History for Lechfeld, Germany

Change the Weather History Date:

Friday, February 15, 2013

  Actual Average (EDMA) Record (EDMA)
Temperature  
Mean Temperature 22 °F -  
Max Temperature 33 °F 40 °F 61 °F (2014)
Min Temperature 10 °F 26 °F 5 °F (2003)
Degree Days  
Heating Degree Days 44    
Moisture  
Dew Point 26 °F    
Average Humidity 93    
Maximum Humidity 100    
Minimum Humidity 81    
Precipitation  
Precipitation 0.00 in - - ()
Sea Level Pressure  
Sea Level Pressure 30.02 in    
Wind  
Wind Speed 3 mph ()    
Max Wind Speed 7 mph    
Max Gust Speed -    
Visibility 2.9 miles    
Events Fog , Snow    
Averages and records for this station are not official NWS values.
T = Trace of Precipitation, MM = Missing Value Source: Averaged Metar Reports

Daily Weather History Graph

Daily Weather History Graph

Search for Another Location

Airport:

Trip Planner

Search our weather history database for the weather conditions in past years. The results will help you decide how hot, cold, wet, or windy it might be!

Date:

Astronomy

Feb. 15, 2013 Rise Set
Actual Time 7:23 AM CET 5:38 PM CET
Civil Twilight 6:51 AM CET 6:10 PM CET
Nautical Twilight 6:14 AM CET 6:47 PM CET
Astronomical Twilight 5:38 AM CET 7:23 PM CET
Moon 9:20 AM CET (2/15) 11:55 PM CET (2/15)
Length of Visible Light 11h 19m
Length of Day
10h 15m
Waxing Crescent, 28% of the Moon is Illuminated
Feb 15
Waxing Crescent
Feb 17
First Quarter
Feb 25
Full
Mar 4
Last Quarter
Mar 11
New

Hourly Weather History & Observations

Time (CET) Temp. Windchill Dew Point Humidity Pressure Visibility Wind Dir Wind Speed Gust Speed Precip Events Conditions
12:20 AM 10.4 °F - 8.6 °F 92% 29.98 in 3.7 mi South 2.3 mph - N/A   Mostly Cloudy
1:20 AM 15.8 °F - 14.0 °F 93% 29.95 in 5.0 mi Calm Calm - N/A   Mostly Cloudy
2:20 AM 17.6 °F - 15.8 °F 93% 29.95 in 5.0 mi SSW 1.2 mph - N/A   Mostly Cloudy
3:20 AM 21.2 °F 14.9 °F 19.4 °F 93% 29.95 in 5.0 mi South 4.6 mph - N/A   Mostly Cloudy
4:20 AM 19.4 °F - 17.6 °F 93% 29.92 in 5.0 mi Calm Calm - N/A   Mostly Cloudy
5:20 AM 23.0 °F 18.4 °F 21.2 °F 93% 29.92 in 1.9 mi South 3.5 mph - N/A Snow Snow
5:46 AM 23.0 °F 18.4 °F 21.2 °F 93% 29.92 in 3.1 mi SE 3.5 mph - N/A Snow Light Snow
6:20 AM 23.0 °F - 21.2 °F 93% 29.92 in 1.2 mi East 1.2 mph - N/A Snow Snow
7:20 AM 24.8 °F - 23.0 °F 93% 29.95 in 1.2 mi Variable 2.3 mph - N/A Snow Snow
7:55 AM 24.8 °F - 24.8 °F 100% 29.95 in 1.6 mi Variable 1.2 mph - N/A Snow Snow
8:20 AM 24.8 °F - 24.8 °F 100% 29.95 in 2.5 mi SSE 2.3 mph - N/A Snow Light Snow
9:20 AM 26.6 °F - 24.8 °F 93% 29.95 in 1.6 mi SE 2.3 mph - N/A Snow Snow
10:20 AM 28.4 °F 23.3 °F 26.6 °F 93% 29.98 in 1.2 mi SW 4.6 mph - N/A Snow Snow
11:20 AM 30.2 °F 24.3 °F 28.4 °F 93% 30.01 in 1.6 mi WSW 5.8 mph - N/A Snow Snow
12:20 PM 32.0 °F 26.4 °F 30.2 °F 93% 30.01 in 1.6 mi WSW 5.8 mph - N/A Snow Snow
12:40 PM 33.8 °F 27.7 °F 30.2 °F 87% 30.01 in 2.5 mi West 6.9 mph - N/A Snow Light Snow
1:00 PM 33.8 °F 27.7 °F 30.2 °F 87% 30.01 in 5.0 mi West 6.9 mph - N/A Snow Light Snow
1:20 PM 33.8 °F 27.7 °F 28.4 °F 81% 30.01 in 5.0 mi WSW 6.9 mph - N/A   Mostly Cloudy
2:20 PM 33.8 °F 27.7 °F 30.2 °F 87% 30.01 in 5.0 mi West 6.9 mph - N/A   Mostly Cloudy
3:20 PM 33.8 °F 28.6 °F 30.2 °F 87% 30.04 in 1.9 mi West 5.8 mph - N/A Snow Snow
4:20 PM 32.0 °F 28.7 °F 32.0 °F 100% 30.04 in 1.9 mi WNW 3.5 mph - N/A Snow Snow
5:20 PM 32.0 °F 28.7 °F 30.2 °F 93% 30.06 in 1.6 mi West 3.5 mph - N/A Snow Snow
6:20 PM 32.0 °F 27.5 °F 30.2 °F 93% 30.09 in 1.9 mi WNW 4.6 mph - N/A Snow Snow
7:00 PM 30.2 °F 26.7 °F 30.2 °F 100% 30.09 in 3.1 mi West 3.5 mph - N/A Snow Light Snow
7:20 PM 30.2 °F 25.4 °F 30.2 °F 100% 30.12 in 3.1 mi West 4.6 mph - N/A Snow Light Snow
8:02 PM 30.2 °F 25.4 °F 30.2 °F 100% 30.12 in 2.2 mi West 4.6 mph - N/A Snow Snow
8:20 PM 32.0 °F 28.7 °F 30.2 °F 93% 30.12 in 3.1 mi WSW 3.5 mph - N/A Fog , Snow Light Snow
9:20 PM 32.0 °F 28.7 °F 30.2 °F 93% 30.12 in 3.7 mi WSW 3.5 mph - N/A Snow Light Snow
10:20 PM 32.0 °F 27.5 °F 30.2 °F 93% 30.15 in 3.1 mi WSW 4.6 mph - N/A Snow Light Snow
11:20 PM 32.0 °F 26.4 °F 30.2 °F 93% 30.15 in 3.7 mi West 5.8 mph - N/A   Overcast